Temperature
17 17 17 17 17 17 17 17 17 16 16 17 17 17 16 16 16 16 16 16 16 16 16 16 16 16 16 16 16 16 15 15 15 15 15 15 15 15
17 17 17 17 17 17 17 16 16 16 16 16 16 16 16 16 16 16 16 16 16 16 16 16 16 16 16 15 15 15 15 15 15 15 15 15 15 15
17 17 17 17 16 16 16 16 16 16 16 16 16 16 16 16 16 16 16 16 16 16 16 16 16 16 16 15 15 15 15 15 15 15 15 15 15 15
17 16 16 16 16 16 16 16 16 16 15 15 16 16 16 16 16 16 16 16 16 16 15 15 15 15 15 15 15 15 15 15 15 15 15 15 15 15
16 16 16 16 15 15 15 15 15 15 15 15 15 15 15 15 15 15 15 15 15 15 15 15 15 15 15 15 15 15 15 15 15 15 15 14 14 14
16 15 15 15 15 15 15 15 15 15 15 15 15 15 15 15 15 15 15 15 15 15 15 15 15 15 15 15 15 15 15 15 15 15 14 14 14 14
15 15 15 15 15 15 15 15 15 15 14 14 14 14 14 14 14 14 14 14 15 15 15 15 15 15 15 15 15 15 15 14 14 15 14 14 14 14
15 15 15 15 14 14 14 14 14 14 14 14 14 14 14 14 14 14 14 14 14 14 14 14 14 14 14 14 14 14 14 14 14 14 14 14 14 14
15 14 14 14 14 14 14 14 14 14 14 14 14 14 14 14 14 14 14 13 13 13 13 14 14 14 14 14 14 14 14 14 14 14 14 14 13 13
14 14 14 14 14 14 14 14 14 13 13 13 13 13 13 13 13 13 13 13 13 13 13 13 13 13 14 14 14 14 14 14 13 13 13 13 13 13
14 14 14 14 14 13 13 13 13 13 13 13 13 13 13 13 13 13 13 13 13 13 13 13 13 13 13 13 13 13 13 13 13 13 13 13 13 13
14 14 13 13 13 13 13 13 13 13 13 13 13 13 13 13 12 12 12 12 12 12 12 12 12 12 12 13 13 13 13 13 13 13 13 12 12 12
13 13 13 13 13 13 13 13 12 12 12 12 12 12 12 12 12 12 12 12 12 12 12 11 11 11 11 12 12 12 12 12 12 12 12 12 12 12
13 13 13 13 12 12 12 12 12 12 12 12 12 12 12 12 12 12 12 11 11 11 11 11 11 11 11 11 11 12 12 12 12 12 12 12 12 12
13 12 12 12 12 12 12 12 12 12 12 11 11 11 11 11 11 11 11 11 11 11 11 11 11 11 11 11 11 11 11 11 11 11 11 11 12 12
12 12 12 12 12 12 12 11 11 11 11 11 11 11 11 11 11 11 11 11 11 11 11 11 10 10 10 10 10 11 11 11 11 11 11 11 11 11
12 12 12 12 12 11 11 11 11 10 10 10 10 10 10 10 10 10 10 10 10 10 10 10 10 10 10 10 10 10 10 10 10 10 10 11 11 11
12 12 12 11 11 11 11 10 10 10 10 10 10 10 10 10 9 9 9 9 9 9 9 9 9 10 9 9 10 10 10 10 10 10 10 10 10 10
11 11 11 11 10 10 10 10 9 9 9 9 9 9 9 9 9 9 9 9 9 9 8 8 9 9 8 8 9 9 9 9 9 9 9 9 10 10
11 11 10 10 10 10 9 9 9 9 9 9 9 9 9 9 8 8 8 8 8 8 8 8 8 8 8 8 8 8 9 8 8 9 9 9 9 9
10 10 10 10 9 9 9 9 9 8 8 8 8 8 8 8 8 8 8 8 8 7 7 8 8 8 8 7 8 8 8 8 8 8 8 8 8 8
10 10 9 9 9 9 8 8 8 8 8 8 8 8 7 7 7 7 7 7 7 7 7 7 7 7 7 7 7 7 7 8 8 8 8 8 8 8
9 9 9 9 9 8 8 8 8 8 7 7 7 7 7 7 7 7 7 7 7 7 7 7 7 7 7 7 7 7 7 7 7 7 8 8 8 8
Wind_Speed
1 2 1 1 2 2 3 3 3 2 2 2 1 1 2 3 3 3 3 4 4 5 5 5 6 6 8 8 8 8 7 7 7 8 8 8 9 9
1 1 1 1 1 1 2 2 2 3 3 2 2 2 2 2 2 2 3 4 4 5 5 5 6 7 7 8 8 9 9 8 8 8 8 8 8 9
0 0 1 0 0 0 1 1 2 2 3 2 2 2 2 2 2 2 2 3 3 5 6 6 6 6 7 7 8 8 9 9 9 9 9 9 9 9
1 0 1 0 0 0 1 1 2 2 2 2 2 1 2 2 2 2 2 2 3 4 6 6 7 7 7 8 8 8 9 9 9 9 9 9 9 9
1 1 1 1 0 1 1 1 2 2 2 2 2 1 1 1 2 2 2 2 2 3 5 6 6 6 7 8 8 8 8 9 9 9 10 9 9 9
1 1 2 2 2 2 2 2 1 1 1 1 2 2 2 1 1 1 2 2 3 3 2 3 5 6 7 7 7 8 8 8 8 8 9 9 9 9
1 1 2 2 3 3 2 2 2 2 1 2 2 2 2 1 2 2 2 3 3 2 2 2 3 3 4 6 7 7 8 8 8 8 8 8 8 8
2 2 2 2 2 3 3 2 3 3 3 2 2 3 3 3 2 2 2 2 3 1 2 4 3 4 4 4 6 8 8 8 8 8 8 8 8 8
2 2 2 2 1 2 2 2 1 2 4 4 4 4 3 3 3 3 3 3 4 2 2 3 3 4 4 5 8 9 8 8 7 8 8 8 8 8
2 2 2 2 2 1 1 1 2 2 3 3 4 5 4 3 4 4 4 3 3 2 2 3 3 4 4 5 7 9 9 8 7 7 8 8 8 8
2 1 1 2 2 1 1 1 2 3 3 3 4 4 5 4 3 2 2 2 3 3 2 2 3 3 3 4 4 6 7 7 7 7 8 8 8 7
2 2 1 1 1 1 1 1 2 3 3 3 3 3 3 3 3 4 4 3 3 3 1 2 2 1 3 2 2 3 4 6 7 7 7 7 7 5
0 1 2 1 1 0 1 2 4 3 2 2 2 3 2 2 2 3 4 4 4 4 2 2 2 2 2 3 3 2 2 2 3 4 7 7 7 7
1 1 1 1 1 1 1 2 2 2 1 1 2 2 3 3 3 3 4 5 5 6 4 3 3 3 3 4 4 3 3 3 3 3 3 5 7 8
1 1 2 1 1 1 2 2 1 0 0 1 2 3 3 3 3 3 3 3 4 4 3 4 4 3 4 4 4 4 3 3 3 3 3 3 3 4
1 1 2 1 1 1 2 2 1 0 1 1 2 3 3 2 3 2 2 2 2 3 3 3 3 3 4 5 5 5 4 3 3 3 3 3 4 4
0 1 1 1 2 2 2 2 2 1 1 2 2 2 2 2 2 2 2 2 2 2 3 3 3 3 4 4 5 6 5 4 4 3 3 3 4 4
2 0 1 1 1 2 2 2 2 2 2 2 2 2 2 2 2 2 1 1 2 3 3 3 2 2 2 2 4 5 4 4 3 3 3 4 4 4
1 0 1 1 2 2 2 2 2 3 3 3 3 2 2 2 2 1 1 2 2 3 3 3 2 2 3 5 3 3 4 4 3 3 3 4 5 4
0 1 2 2 2 2 2 2 3 3 3 3 3 3 2 2 2 2 2 2 3 3 3 3 3 3 4 5 4 4 4 4 4 4 4 3 3 3
1 1 2 2 2 2 2 3 3 3 3 2 2 2 2 2 2 3 3 3 3 3 4 5 5 6 4 3 3 4 3 3 3 4 4 4 3 3
2 2 2 2 2 2 2 2 2 3 3 3 3 2 2 2 3 4 3 3 4 4 5 5 4 3 2 3 4 5 5 4 4 4 4 4 3 3
2 2 2 2 2 2 2 2 3 3 3 3 3 3 3 3 3 4 4 4 4 4 4 4 3 2 3 3 4 4 5 5 4 3 3 3 4 4
Wind_Direction
224 212 220 237 217 216 207 199 192 238 274 268 269 277 254 246 254 236 238 240 227 221 225 227 231 227 218 219 222 224 226 227 227 228 230 233 233 239
222 205 237 247 252 219 207 202 192 203 242 257 255 285 279 274 266 244 241 243 231 224 224 225 226 230 223 222 224 226 229 230 231 232 236 237 233 238
296 211 276 237 229 251 204 194 198 194 230 275 269 285 276 294 313 292 255 241 247 236 231 229 229 231 231 228 229 231 233 233 234 234 235 238 237 237
273 311 292 267 32 250 215 224 221 204 207 252 281 283 278 288 304 305 305 274 256 250 235 232 235 235 241 233 233 234 236 237 236 236 237 237 236 234
229 210 223 166 221 241 234 243 242 223 205 215 259 269 277 292 330 323 321 307 284 269 242 238 244 242 244 241 236 236 239 240 240 240 241 240 238 236
241 227 222 209 224 236 238 233 227 212 195 211 257 276 273 285 289 303 313 303 288 294 273 250 252 251 248 249 246 242 241 241 242 243 241 239 238 238
279 272 256 244 241 230 234 221 206 207 217 229 250 261 263 256 252 250 271 290 277 273 282 272 258 257 256 253 251 246 242 241 241 242 241 239 236 235
271 288 284 273 270 256 251 219 193 200 215 224 236 244 251 246 243 241 253 281 280 268 260 278 258 262 259 250 252 246 240 239 239 239 238 236 235 232
260 279 291 298 286 270 277 272 247 229 205 207 232 247 246 244 235 241 237 240 254 267 242 267 261 264 262 254 248 247 243 240 240 235 231 230 229 230
264 263 267 297 287 241 239 297 291 274 241 222 236 251 255 249 228 233 236 248 266 262 212 254 267 269 276 263 253 245 242 237 237 236 232 229 230 229
306 289 269 273 302 191 170 258 297 297 276 247 241 258 265 257 226 208 220 239 271 267 216 243 270 280 280 271 263 249 241 237 240 239 234 229 229 226
326 325 326 301 336 147 188 219 265 284 302 316 306 304 293 281 239 217 222 232 254 265 237 235 265 280 289 277 283 279 258 249 241 236 233 230 221 216
330 326 329 342 339 224 206 231 251 264 290 298 308 313 313 301 280 246 230 228 235 248 238 210 243 245 255 285 294 282 266 266 249 244 236 232 220 209
237 279 304 313 305 289 265 289 284 270 281 306 315 314 308 299 291 276 253 243 241 245 238 210 234 237 246 269 280 288 279 263 252 247 240 230 226 221
241 281 321 323 316 317 314 316 333 348 332 303 295 299 296 293 300 298 286 267 264 272 265 242 241 243 237 251 266 274 280 270 249 250 239 228 226 223
313 326 327 335 351 346 352 357 14 288 244 275 290 295 302 312 312 309 305 304 296 302 296 270 245 234 241 252 254 262 257 257 263 255 246 242 237 229
316 34 33 16 3 359 355 347 342 337 302 288 290 302 310 309 308 308 303 296 284 290 301 311 291 261 253 257 262 261 261 264 264 255 236 247 248 240
110 32 320 313 308 312 316 318 317 305 296 291 288 290 292 293 297 308 308 292 288 291 293 301 312 312 307 286 254 266 271 272 272 253 241 246 257 253
105 323 298 295 296 299 298 298 299 299 296 291 286 287 288 293 302 299 295 296 295 296 302 299 292 278 286 292 286 253 273 284 275 264 252 252 260 259
255 270 279 280 283 288 294 299 301 307 306 301 298 299 293 290 292 284 279 285 292 298 300 297 283 268 261 272 280 289 269 271 274 269 266 268 275 277
293 288 287 286 288 290 296 299 299 301 306 307 306 307 302 298 296 294 292 287 286 294 294 291 284 279 274 268 270 280 289 271 264 267 267 262 270 270
307 300 299 300 299 298 301 303 303 303 302 296 296 296 296 294 292 294 293 289 286 282 286 290 296 289 269 267 276 285 296 310 301 274 262 255 246 238
295 298 305 312 304 298 298 299 298 297 299 299 297 294 291 289 288 286 285 280 281 284 286 294 305 298 277 270 274 281 288 295 305 314 304 293 267 264
Height
1518 1518 1518 1518 1518 1518 1518 1518 1518 1517 1516 1516 1516 1516 1516 1516 1516 1516 1516 1516 1516 1516 1516 1515 1515 1515 1515 1516 1517 1518 1518 1520 1521 1521 1522 1523 1523 1524
1515 1515 1515 1515 1515 1515 1515 1515 1515 1515 1514 1514 1514 1514 1514 1514 1514 1514 1514 1514 1514 1513 1513 1513 1513 1513 1513 1514 1514 1515 1516 1517 1518 1518 1519 1520 1520 1520
1513 1513 1512 1512 1512 1512 1513 1513 1513 1512 1512 1511 1511 1511 1511 1511 1511 1511 1511 1511 1511 1511 1511 1510 1511 1511 1511 1511 1512 1512 1513 1514 1514 1515 1516 1516 1516 1517
1510 1510 1510 1509 1509 1509 1510 1510 1510 1509 1509 1508 1508 1508 1508 1508 1508 1508 1508 1508 1508 1508 1508 1508 1508 1508 1508 1508 1509 1509 1510 1511 1511 1511 1512 1513 1513 1513
1507 1507 1507 1507 1506 1507 1507 1507 1507 1506 1506 1506 1505 1505 1505 1505 1505 1505 1505 1505 1505 1505 1505 1505 1505 1505 1505 1505 1505 1506 1507 1507 1507 1508 1508 1508 1509 1509
1505 1505 1504 1504 1504 1504 1504 1504 1504 1503 1503 1503 1503 1503 1503 1502 1502 1502 1502 1502 1502 1502 1502 1502 1502 1502 1502 1501 1501 1502 1502 1503 1503 1504 1504 1504 1505 1505
1502 1502 1502 1501 1501 1501 1501 1501 1501 1501 1501 1500 1500 1500 1500 1499 1499 1499 1499 1499 1499 1499 1499 1499 1498 1498 1498 1498 1498 1498 1498 1498 1499 1499 1499 1500 1500 1501
1499 1499 1499 1499 1499 1499 1499 1498 1498 1498 1498 1497 1497 1497 1496 1496 1496 1496 1496 1495 1495 1496 1495 1495 1495 1494 1494 1494 1494 1494 1494 1494 1494 1494 1495 1495 1496 1496
1497 1497 1496 1496 1496 1496 1496 1496 1495 1495 1495 1495 1494 1494 1493 1493 1493 1493 1492 1492 1492 1492 1492 1491 1491 1490 1490 1490 1490 1490 1490 1490 1490 1490 1490 1491 1491 1491
1494 1494 1493 1493 1493 1493 1493 1492 1492 1492 1492 1491 1491 1491 1491 1491 1490 1490 1489 1489 1489 1489 1488 1487 1487 1487 1486 1486 1486 1486 1486 1486 1486 1486 1486 1486 1486 1487
1491 1491 1491 1490 1490 1490 1490 1489 1489 1489 1489 1488 1488 1487 1487 1487 1486 1486 1485 1485 1484 1484 1484 1483 1482 1482 1482 1482 1482 1482 1482 1481 1481 1481 1482 1482 1482 1482
1489 1489 1488 1488 1488 1487 1487 1486 1485 1485 1485 1484 1484 1483 1483 1482 1482 1482 1482 1481 1480 1480 1480 1480 1479 1478 1477 1477 1477 1477 1477 1477 1477 1477 1477 1477 1478 1478
1486 1486 1486 1485 1485 1484 1484 1483 1482 1482 1481 1480 1480 1479 1479 1478 1478 1477 1477 1477 1477 1476 1476 1476 1475 1475 1474 1473 1473 1473 1473 1472 1472 1472 1472 1473 1473 1473
1484 1484 1483 1483 1482 1481 1481 1480 1479 1478 1478 1477 1476 1475 1475 1474 1474 1473 1473 1472 1472 1472 1472 1472 1471 1471 1470 1469 1468 1468 1468 1468 1467 1467 1467 1468 1468 1468
1482 1481 1481 1480 1480 1479 1478 1477 1476 1475 1474 1473 1472 1472 1471 1471 1470 1469 1468 1468 1468 1467 1467 1467 1467 1466 1465 1465 1464 1464 1463 1463 1463 1462 1462 1463 1463 1463
1480 1479 1478 1478 1477 1476 1475 1474 1473 1472 1471 1471 1469 1469 1468 1467 1466 1465 1464 1463 1462 1462 1463 1462 1462 1461 1460 1460 1460 1459 1459 1458 1458 1458 1458 1458 1458 1459
1477 1477 1476 1475 1474 1473 1472 1471 1470 1469 1468 1467 1466 1465 1464 1463 1462 1461 1460 1459 1458 1457 1457 1457 1457 1457 1456 1455 1454 1454 1454 1453 1453 1453 1453 1452 1453 1454
1475 1474 1473 1472 1471 1470 1469 1468 1467 1466 1465 1464 1463 1462 1461 1459 1458 1457 1456 1455 1454 1454 1453 1452 1452 1451 1451 1450 1450 1449 1449 1448 1448 1448 1448 1447 1447 1448
1472 1471 1470 1469 1468 1467 1466 1465 1464 1463 1462 1461 1460 1458 1457 1456 1454 1453 1453 1452 1451 1450 1449 1449 1448 1447 1446 1445 1444 1445 1444 1443 1443 1443 1443 1442 1442 1442
1469 1469 1468 1467 1466 1465 1464 1462 1461 1460 1459 1458 1456 1455 1453 1452 1451 1450 1449 1448 1448 1447 1446 1445 1444 1444 1442 1442 1440 1440 1440 1439 1439 1438 1438 1437 1437 1437
1467 1467 1466 1465 1464 1462 1461 1460 1458 1457 1456 1455 1453 1452 1450 1449 1448 1447 1446 1445 1444 1443 1442 1441 1440 1440 1439 1438 1437 1436 1436 1435 1435 1434 1433 1433 1432 1432
1466 1465 1464 1462 1461 1460 1459 1457 1456 1455 1453 1452 1450 1449 1448 1446 1445 1444 1443 1442 1441 1440 1439 1438 1437 1436 1435 1434 1432 1432 1431 1431 1430 1430 1429 1429 1428 1427
1464 1463 1462 1460 1459 1458 1456 1455 1454 1452 1451 1449 1448 1446 1445 1444 1442 1441 1440 1439 1438 1436 1435 1434 1433 1432 1431 1430 1429 1428 1427 1427 1426 1425 1425 1424 1424 1424